Hourly Weather Barniewice

Today, 21 April, Wednesday

Time Temperature Precipitation Wind Pressure Humidity
00:00 +7°C° 0 mm 1 mps 747 mmHg 75%
01:00 +7°C° 0 mm 1 mps 746 mmHg 75%
02:00 +7°C° 0 mm 1 mps 746 mmHg 76%
03:00 +6°C° 0 mm 1 mps 746 mmHg 77%
04:00 +5°C° 0 mm 2 mps 746 mmHg 77%
05:00 +6°C° 0 mm 2 mps 746 mmHg 73%
06:00 +7°C° 0 mm 2 mps 746 mmHg 69%
07:00 +9°C° 0 mm 2 mps 746 mmHg 65%
08:00 +10°C° 0 mm 2 mps 745 mmHg 58%
09:00 +12°C° 0 mm 3 mps 745 mmHg 51%
10:00 +13°C° 0 mm 3 mps 745 mmHg 44%
11:00 +14°C° 0 mm 3 mps 745 mmHg 43%
12:00 +14°C° 0 mm 4 mps 745 mmHg 43%
13:00 +15°C° 0 mm 4 mps 744 mmHg 42%
14:00 +14°C° 0 mm 5 mps 744 mmHg 44%
15:00 +13°C° 0 mm 5 mps 744 mmHg 46%
16:00 +13°C° 0 mm 6 mps 744 mmHg 48%
17:00 +10°C° 0 mm 6 mps 744 mmHg 57%
18:00 +8°C° 0 mm 6 mps 744 mmHg 65%
19:00 +6°C° 0 mm 5 mps 744 mmHg 73%
20:00 +6°C° 0 mm 5 mps 744 mmHg 70%
21:00 +4°C° 0 mm 6 mps 744 mmHg 67%
22:00 +4°C° 0 mm 6 mps 744 mmHg 64%
23:00 +3°C° 0 mm 6 mps 744 mmHg 65%

Tomorrow, 22 April, Thursday

Time Temperature Precipitation Wind Pressure Humidity
00:00 +2°C° 0 mm 6 mps 744 mmHg 65%
01:00 +1°C° 0 mm 6 mps 744 mmHg 65%
02:00 0°C° 0 mm 7 mps 743 mmHg 69%
03:00 0°C° 0 mm 7 mps 743 mmHg 72%
04:00 -1°C° 0 mm 8 mps 743 mmHg 76%
05:00 0°C° 0 mm 8 mps 743 mmHg 73%
06:00 +1°C° 0 mm 9 mps 743 mmHg 71%
07:00 +2°C° 0 mm 9 mps 743 mmHg 68%
08:00 +2°C° 0.1 mm 9 mps 743 mmHg 64%
09:00 +3°C° 0.1 mm 10 mps 743 mmHg 61%
10:00 +3°C° 0.1 mm 10 mps 743 mmHg 57%
11:00 +3°C° 0.1 mm 10 mps 743 mmHg 56%
12:00 +3°C° 0.1 mm 10 mps 744 mmHg 55%
13:00 +3°C° 0.1 mm 9 mps 744 mmHg 53%
14:00 +3°C° 0.1 mm 9 mps 744 mmHg 54%
15:00 +3°C° 0.1 mm 9 mps 745 mmHg 55%
16:00 +3°C° 0.1 mm 9 mps 745 mmHg 56%
17:00 +2°C° 0 mm 8 mps 745 mmHg 60%
18:00 +1°C° 0 mm 8 mps 745 mmHg 64%
19:00 0°C° 0 mm 7 mps 745 mmHg 68%
20:00 0°C° 0 mm 7 mps 746 mmHg 69%
21:00 0°C° 0 mm 7 mps 746 mmHg 71%
22:00 0°C° 0 mm 7 mps 746 mmHg 72%
23:00 0°C° 0 mm 7 mps 746 mmHg 70%

Day after tomorrow, 23 April, Friday

Time Temperature Precipitation Wind Pressure Humidity
00:00 +1°C° 0 mm 6 mps 746 mmHg 69%
01:00 +1°C° 0 mm 6 mps 746 mmHg 67%
02:00 +1°C° 0.1 mm 6 mps 746 mmHg 68%
03:00 0°C° 0.1 mm 7 mps 747 mmHg 68%
04:00 -1°C° 0.1 mm 7 mps 747 mmHg 69%
05:00 0°C° 0 mm 7 mps 747 mmHg 65%
06:00 +2°C° 0 mm 7 mps 747 mmHg 60%
07:00 +2°C° 0 mm 7 mps 748 mmHg 56%
08:00 +3°C° 0 mm 7 mps 748 mmHg 52%
09:00 +4°C° 0 mm 7 mps 748 mmHg 48%
10:00 +4°C° 0 mm 7 mps 749 mmHg 44%
11:00 +4°C° 0 mm 8 mps 749 mmHg 44%
12:00 +4°C° 0 mm 8 mps 750 mmHg 44%
13:00 +4°C° 0 mm 8 mps 750 mmHg 44%
14:00 +4°C° 0 mm 8 mps 751 mmHg 44%
15:00 +4°C° 0 mm 7 mps 751 mmHg 44%
16:00 +4°C° 0 mm 7 mps 751 mmHg 45%
17:00 +3°C° 0 mm 6 mps 751 mmHg 49%
18:00 +2°C° 0 mm 6 mps 752 mmHg 53%
19:00 +2°C° 0 mm 5 mps 752 mmHg 57%
20:00 +1°C° 0 mm 4 mps 752 mmHg 59%
21:00 +1°C° 0 mm 4 mps 752 mmHg 61%
22:00 +2°C° 0 mm 3 mps 752 mmHg 64%
23:00 +1°C° 0 mm 4 mps 752 mmHg 63%

24 April, Saturday

Time Temperature Precipitation Wind Pressure Humidity
00:00 +1°C° 0 mm 4 mps 752 mmHg 62%
01:00 +1°C° 0 mm 5 mps 752 mmHg 62%
02:00 0°C° 0 mm 5 mps 752 mmHg 65%
03:00 0°C° 0 mm 5 mps 752 mmHg 67%
04:00 -1°C° 0 mm 5 mps 752 mmHg 70%
05:00 0°C° 0 mm 5 mps 752 mmHg 67%
06:00 +1°C° 0 mm 5 mps 752 mmHg 64%
07:00 +2°C° 0 mm 5 mps 752 mmHg 61%
08:00 +3°C° 0 mm 6 mps 752 mmHg 54%
09:00 +4°C° 0 mm 6 mps 752 mmHg 47%
10:00 +5°C° 0 mm 7 mps 752 mmHg 40%
11:00 +5°C° 0 mm 7 mps 752 mmHg 40%
12:00 +4°C° 0 mm 7 mps 752 mmHg 40%
13:00 +4°C° 0 mm 8 mps 752 mmHg 40%
14:00 +4°C° 0 mm 8 mps 752 mmHg 40%
15:00 +4°C° 0 mm 7 mps 753 mmHg 40%
16:00 +3°C° 0 mm 7 mps 753 mmHg 40%
17:00 +2°C° 0 mm 6 mps 753 mmHg 45%
18:00 +2°C° 0 mm 6 mps 753 mmHg 49%
19:00 +1°C° 0 mm 5 mps 753 mmHg 53%
20:00 0°C° 0 mm 5 mps 753 mmHg 58%
21:00 0°C° 0 mm 5 mps 753 mmHg 62%
22:00 -1°C° 0 mm 5 mps 753 mmHg 67%
23:00 -1°C° 0 mm 5 mps 753 mmHg 69%

25 April, Sunday

Time Temperature Precipitation Wind Pressure Humidity
00:00 -1°C° 0 mm 5 mps 753 mmHg 71%
01:00 -1°C° 0 mm 5 mps 753 mmHg 73%
02:00 -1°C° 0 mm 5 mps 753 mmHg 75%
03:00 -1°C° 0 mm 5 mps 753 mmHg 77%
04:00 -1°C° 0 mm 5 mps 753 mmHg 79%
05:00 0°C° 0 mm 5 mps 753 mmHg 72%
06:00 +1°C° 0 mm 5 mps 753 mmHg 65%
07:00 +2°C° 0 mm 5 mps 753 mmHg 58%
08:00 +2°C° 0.1 mm 6 mps 753 mmHg 56%
09:00 +3°C° 0.1 mm 6 mps 753 mmHg 53%
10:00 +4°C° 0.1 mm 7 mps 753 mmHg 50%
11:00 +4°C° 0.1 mm 7 mps 753 mmHg 49%
12:00 +4°C° 0.1 mm 7 mps 753 mmHg 47%
13:00 +4°C° 0.1 mm 8 mps 753 mmHg 45%
14:00 +3°C° 0 mm 7 mps 753 mmHg 46%
15:00 +3°C° 0 mm 7 mps 753 mmHg 47%
16:00 +3°C° 0 mm 7 mps 753 mmHg 48%
17:00 +2°C° 0 mm 6 mps 753 mmHg 50%
18:00 +2°C° 0 mm 5 mps 753 mmHg 51%
19:00 +1°C° 0 mm 5 mps 753 mmHg 53%
20:00 +1°C° 0 mm 5 mps 753 mmHg 55%
21:00 +1°C° 0 mm 5 mps 753 mmHg 57%
22:00 +1°C° 0 mm 5 mps 753 mmHg 59%
23:00 +1°C° 0 mm 5 mps 752 mmHg 61%

26 April, Monday

Time Temperature Precipitation Wind Pressure Humidity
00:00 +1°C° 0 mm 5 mps 752 mmHg 64%
01:00 +1°C° 0 mm 5 mps 752 mmHg 66%
02:00 +1°C° 0 mm 5 mps 751 mmHg 66%
03:00 +1°C° 0 mm 6 mps 751 mmHg 66%
04:00 +1°C° 0 mm 6 mps 751 mmHg 65%
05:00 +1°C° 0 mm 6 mps 752 mmHg 66%
06:00 +2°C° 0 mm 7 mps 752 mmHg 66%
07:00 +2°C° 0 mm 7 mps 752 mmHg 67%
08:00 +2°C° 0 mm 7 mps 752 mmHg 67%
09:00 +3°C° 0 mm 7 mps 753 mmHg 67%
10:00 +3°C° 0 mm 6 mps 753 mmHg 68%
11:00 +4°C° 0 mm 6 mps 753 mmHg 66%
12:00 +4°C° 0 mm 6 mps 753 mmHg 65%
13:00 +5°C° 0 mm 5 mps 753 mmHg 63%
14:00 +5°C° 0 mm 5 mps 753 mmHg 61%
15:00 +5°C° 0 mm 4 mps 753 mmHg 60%
16:00 +5°C° 0 mm 4 mps 752 mmHg 58%
17:00 +4°C° 0 mm 3 mps 752 mmHg 62%
18:00 +3°C° 0 mm 3 mps 752 mmHg 66%
19:00 +3°C° 0 mm 2 mps 752 mmHg 70%
20:00 +3°C° 0 mm 1 mps 751 mmHg 73%
21:00 +2°C° 0 mm 1 mps 751 mmHg 76%
22:00 0°C° 0 mm 0 mps 751 mmHg 79%
23:00 +1°C° 0 mm 1 mps 751 mmHg 82%
Show more